This demonstration page uses our WeatherBlox Daily Observations layout. Learn more.

Left ArrowRight Arrow

Hourly Observations for October 17, 2022

Temp ( °F °C ) Dew Point ( °F °C ) Humidity (%) Winds ( mph kmh ) Pressure ( in mb ) Visibility ( mi km ) Precip ( " mm )
12:56 am 00:56 Clear 34 1.1 21 -6.1 59 59 NNW 7 11 30.32 1027 10 16 0.00 0.00
1:56 am 01:56 Clear 33 0.6 21 -6.1 61 61 WNW 8 13 30.32 1027 10 16 0.00 0.00
2:56 am 02:56 Clear 31 -0.6 22 -5.6 69 69 NW 5 7 30.32 1027 10 16 0.00 0.00
3:56 am 03:56 Clear 29 -1.7 22 -5.6 75 75 WNW 7 11 30.33 1027 10 16 0.00 0.00
4:56 am 04:56 Clear 30 -1.1 22 -5.6 71 71 NW 6 9 30.33 1027 10 16 0.00 0.00
5:56 am 05:56 Clear 30 -1.1 21 -6.1 69 69 NNW 7 11 30.35 1028 10 16 0.00 0.00
6:56 am 06:56 Clear 30 -1.1 21 -6.1 69 69 NW 6 9 30.36 1028 10 16 0.00 0.00
7:56 am 07:56 Sunny 28 -2.2 20 -6.7 71 71 NW 6 9 30.38 1029 10 16 0.00 0.00
8:56 am 08:56 Sunny 31 -0.6 22 -5.6 69 69 WNW 8 13 30.39 1029 10 16 0.00 0.00
9:56 am 09:56 Mostly Sunny 36 2.2 21 -6.1 54 54 NNW 8 13 30.40 1030 10 16 0.00 0.00
10:56 am 10:56 Cloudy 39 3.9 21 -6.1 48 48 NNW 6 9 30.41 1030 10 16 0.00 0.00
11:56 am 11:56 Cloudy 42 5.6 19 -7.2 39 39 NNW 10 17 30.40 1030 10 16 0.00 0.00
12:56 pm 12:56 Cloudy 45 7.2 17 -8.3 32 32 NNW 8 13 30.38 1029 10 16 0.00 0.00
1:56 pm 13:56 Sunny 47 8.3 15 -9.4 27 27 NNW 7 11 30.35 1028 9 14 0.00 0.00
2:56 pm 14:56 Sunny 50 10 15 -9.4 24 24 WNW 7 11 30.32 1027 10 16 0.00 0.00
3:56 pm 15:56 Sunny 51 10.6 15 -9.4 23 23 NNW 8 13 30.31 1026 10 16 0.00 0.00
4:56 pm 16:56 Sunny 52 11.1 16 -8.9 24 24 NW 12 19 30.30 1026 10 16 0.00 0.00
5:56 pm 17:56 Sunny 50 10 16 -8.9 25 25 N 14 22 30.29 1026 10 16 0.00 0.00
6:56 pm 18:56 Cloudy 47 8.3 19 -7.2 32 32 NNE 8 13 30.29 1026 10 16 0.00 0.00
7:56 pm 19:56 Cloudy 43 6.1 20 -6.7 39 39 NE 6 9 30.31 1027 10 16 0.00 0.00
8:56 pm 20:56 Cloudy 43 6.1 16 -8.9 33 33 NNE 9 15 30.32 1027 10 16 0.00 0.00
9:56 pm 21:56 Cloudy 43 6.1 14 -10 30 30 NE 10 17 30.32 1027 10 16 0.00 0.00
10:56 pm 22:56 Cloudy 42 5.6 15 -9.4 33 33 NE 10 17 30.34 1027 10 16 0.00 0.00
11:56 pm 23:56 Mostly Cloudy 36 2.2 13 -10.6 38 38 NE 10 17 30.36 1028 10 16 0.00 0.00

Powered by AerisWeather